Weather History for Coatesville, PA

Change the Weather History Date:

Saturday, January 5, 2013

  Actual Average (KLNS) Record (KLNS)
Temperature  
Mean Temperature 34 °F -  
Max Temperature 39 °F 40 °F 63 °F (1993)
Min Temperature 30 °F 23 °F 7 °F (1981)
Degree Days  
Heating Degree Days 30    
Moisture  
Dew Point 22 °F    
Average Humidity 66    
Maximum Humidity 80    
Minimum Humidity 52    
Precipitation  
Precipitation 0.00 in - - ()
Sea Level Pressure  
Sea Level Pressure 30.24 in    
Wind  
Wind Speed 7 mph (WNW)    
Max Wind Speed 17 mph    
Max Gust Speed 23 mph    
Visibility 10 miles    
Events      
Averages and records for this station are not official NWS values.
T = Trace of Precipitation, MM = Missing Value Source: NWS Daily Summary

Daily Weather History Graph

Daily Weather History Graph

Search for Another Location

Airport:

Trip Planner

Search our weather history database for the weather conditions in past years. The results will help you decide how hot, cold, wet, or windy it might be!

Date:

Astronomy

Jan. 05, 2013 Rise Set
Actual Time 7:25 AM EST 4:52 PM EST
Civil Twilight 6:55 AM EST 5:23 PM EST
Nautical Twilight 6:21 AM EST 5:56 PM EST
Astronomical Twilight 5:48 AM EST 6:29 PM EST
Moon 12:29 AM EST (1/5) 11:41 AM EST (1/5)
Length of Visible Light 10h 27m
Length of Day
9h 27m
Last Quarter, 44% of the Moon is Illuminated
Jan 5
Last Quarter
Jan 11
New
Jan 18
First Quarter
Jan 26
Full
Feb 3
Last Quarter

Hourly Weather History & Observations

Time (EST) Temp. Windchill Dew Point Humidity Pressure Visibility Wind Dir Wind Speed Gust Speed Precip Events Conditions
12:15 AM 32.0 °F 25.6 °F 21.2 °F 64% 30.09 in 10.0 mi West 6.9 mph - N/A   Clear
12:35 AM 32.0 °F 27.5 °F 21.2 °F 64% 30.09 in 10.0 mi WSW 4.6 mph - N/A   Clear
12:55 AM 32.0 °F 26.4 °F 21.2 °F 64% 30.09 in 10.0 mi WSW 5.8 mph - N/A   Clear
1:15 AM 32.0 °F 27.5 °F 21.2 °F 64% 30.09 in 10.0 mi SW 4.6 mph - N/A   Clear
1:35 AM 32.0 °F 26.4 °F 21.2 °F 64% 30.10 in 10.0 mi WSW 5.8 mph - N/A   Clear
1:55 AM 32.0 °F 26.4 °F 21.2 °F 64% 30.10 in 10.0 mi West 5.8 mph - N/A   Clear
2:15 AM 30.2 °F 22.6 °F 21.2 °F 69% 30.11 in 10.0 mi WNW 8.1 mph - N/A   Clear
2:35 AM 30.2 °F 23.4 °F 21.2 °F 69% 30.12 in 10.0 mi WNW 6.9 mph - N/A   Clear
2:55 AM 30.2 °F 21.9 °F 21.2 °F 69% 30.14 in 10.0 mi WNW 9.2 mph - N/A   Clear
3:15 AM 32.0 °F 22.5 °F 21.2 °F 64% 30.14 in 10.0 mi NW 12.7 mph - N/A   Clear
3:35 AM 30.2 °F 23.4 °F 21.2 °F 69% 30.15 in 10.0 mi WNW 6.9 mph - N/A   Clear
3:55 AM 30.2 °F 23.4 °F 21.2 °F 69% 30.17 in 10.0 mi WNW 6.9 mph - N/A   Clear
4:15 AM 30.2 °F 22.6 °F 21.2 °F 69% 30.17 in 10.0 mi WNW 8.1 mph - N/A   Clear
4:35 AM 30.2 °F 21.3 °F 21.2 °F 69% 30.19 in 10.0 mi WNW 10.4 mph - N/A   Clear
4:55 AM 30.2 °F 21.3 °F 21.2 °F 69% 30.20 in 10.0 mi NW 10.4 mph - N/A   Clear
5:15 AM 32.0 °F 22.5 °F 21.2 °F 64% 30.20 in 10.0 mi NW 12.7 mph - N/A   Clear
5:35 AM 30.2 °F 20.2 °F 21.2 °F 69% 30.21 in 10.0 mi NW 12.7 mph - N/A   Clear
5:55 AM 30.2 °F 21.9 °F 21.2 °F 69% 30.23 in 10.0 mi NW 9.2 mph - N/A   Clear
6:15 AM 32.0 °F 23.0 °F 21.2 °F 64% 30.23 in 10.0 mi NW 11.5 mph 17.3 mph N/A   Clear
6:35 AM 30.2 °F 19.8 °F 21.2 °F 69% 30.25 in 10.0 mi NW 13.8 mph 17.3 mph N/A   Clear
6:55 AM 30.2 °F 19.8 °F 21.2 °F 69% 30.26 in 10.0 mi NW 13.8 mph 23.0 mph N/A   Clear
7:15 AM 30.2 °F 19.8 °F 21.2 °F 69% 30.27 in 10.0 mi WNW 13.8 mph 21.9 mph N/A   Clear
7:35 AM 30.2 °F 20.8 °F 21.2 °F 69% 30.29 in 10.0 mi WNW 11.5 mph - N/A   Clear
7:55 AM 30.2 °F 21.3 °F 21.2 °F 69% 30.29 in 10.0 mi NW 10.4 mph 21.9 mph N/A   Clear
8:15 AM 32.0 °F 23.0 °F 21.2 °F 64% 30.30 in 10.0 mi NW 11.5 mph - N/A   Clear
8:35 AM 32.0 °F 21.6 °F 21.2 °F 64% 30.29 in 10.0 mi NW 15.0 mph - N/A   Clear
8:55 AM 32.0 °F 22.5 °F 21.2 °F 64% 30.30 in 10.0 mi NW 12.7 mph - N/A   Clear
9:15 AM 32.0 °F 23.0 °F 21.2 °F 64% 30.30 in 10.0 mi NNW 11.5 mph - N/A   Clear
9:35 AM 32.0 °F 22.1 °F 21.2 °F 64% 30.32 in 10.0 mi NW 13.8 mph 21.9 mph N/A   Clear
9:55 AM 33.8 °F 23.2 °F 21.2 °F 60% 30.34 in 10.0 mi WNW 17.3 mph 23.0 mph N/A   Clear
10:15 AM 33.8 °F 23.5 °F 23.0 °F 65% 30.36 in 10.0 mi WNW 16.1 mph 23.0 mph N/A   Clear
10:55 AM 35.6 °F 28.6 °F 23.0 °F 60% 30.34 in 10.0 mi NNW 9.2 mph - N/A   Clear
11:15 AM 35.6 °F 26.6 °F 23.0 °F 60% 30.33 in 10.0 mi NW 13.8 mph 17.3 mph N/A   Clear
11:55 AM 35.6 °F 29.2 °F 23.0 °F 60% 30.32 in 10.0 mi NW 8.1 mph - N/A   Clear
12:15 PM 37.4 °F 29.8 °F 23.0 °F 56% 30.32 in 10.0 mi WNW 11.5 mph - N/A   Clear
12:35 PM 37.4 °F 30.8 °F 23.0 °F 56% 30.30 in 10.0 mi NNW 9.2 mph - N/A   Clear
12:55 PM 37.4 °F 32.1 °F 23.0 °F 56% 30.29 in 10.0 mi WNW 6.9 mph 17.3 mph N/A   Clear
1:15 PM 39.2 °F 33.6 °F 23.0 °F 52% 30.29 in 10.0 mi West 8.1 mph - N/A   Clear
1:35 PM 37.4 °F 31.4 °F 23.0 °F 56% 30.29 in 9.0 mi West 8.1 mph - N/A   Clear
1:55 PM 37.4 °F 28.9 °F 23.0 °F 56% 30.29 in 10.0 mi WNW 13.8 mph - N/A   Clear
2:15 PM 37.4 °F 30.3 °F 23.0 °F 56% 30.28 in 10.0 mi NW 10.4 mph 16.1 mph N/A   Clear
2:35 PM 37.4 °F 31.4 °F 23.0 °F 56% 30.28 in 10.0 mi NW 8.1 mph - N/A   Clear
2:55 PM 37.4 °F 31.4 °F 23.0 °F 56% 30.29 in 10.0 mi WNW 8.1 mph - N/A   Clear
3:15 PM 37.4 °F 31.4 °F 23.0 °F 56% 30.28 in 10.0 mi WNW 8.1 mph - N/A   Clear
3:35 PM 35.6 °F 29.2 °F 23.0 °F 60% 30.28 in 10.0 mi WNW 8.1 mph - N/A   Clear
3:55 PM 35.6 °F 29.9 °F 23.0 °F 60% 30.27 in 10.0 mi WNW 6.9 mph - N/A   Clear
4:15 PM 33.8 °F 27.7 °F 23.0 °F 65% 30.27 in 10.0 mi WNW 6.9 mph - N/A   Clear
4:35 PM 33.8 °F 30.8 °F 23.0 °F 65% 30.28 in 10.0 mi West 3.5 mph - N/A   Clear
4:55 PM 33.8 °F 29.6 °F 23.0 °F 65% 30.29 in 10.0 mi West 4.6 mph - N/A   Clear
5:15 PM 33.8 °F - 23.0 °F 65% 30.28 in 10.0 mi Calm Calm - N/A   Clear
5:35 PM 33.8 °F - 23.0 °F 65% 30.28 in 10.0 mi Calm Calm - N/A   Clear
5:55 PM 32.0 °F 27.5 °F 23.0 °F 69% 30.29 in 10.0 mi NW 4.6 mph - N/A   Clear
6:15 PM 32.0 °F 28.7 °F 23.0 °F 69% 30.29 in 10.0 mi NNW 3.5 mph - N/A   Clear
6:35 PM 32.0 °F - 23.0 °F 69% 30.28 in 10.0 mi Calm Calm - N/A   Clear
6:55 PM 32.0 °F - 23.0 °F 69% 30.27 in 10.0 mi Calm Calm - N/A   Clear
7:15 PM 32.0 °F - 23.0 °F 69% 30.27 in 10.0 mi Calm Calm - N/A   Clear
7:35 PM 32.0 °F - 23.0 °F 69% 30.26 in 10.0 mi Calm Calm - N/A   Clear
7:55 PM 32.0 °F - 23.0 °F 69% 30.25 in 10.0 mi Calm Calm - N/A   Clear
8:15 PM 32.0 °F 28.7 °F 23.0 °F 69% 30.26 in 10.0 mi South 3.5 mph - N/A   Clear
8:55 PM 32.0 °F - 23.0 °F 69% 30.25 in 10.0 mi Calm Calm - N/A   Clear
9:15 PM 32.0 °F - 23.0 °F 69% 30.24 in 10.0 mi Calm Calm - N/A   Clear
9:35 PM 32.0 °F - 23.0 °F 69% 30.23 in 10.0 mi Calm Calm - N/A   Clear
9:55 PM 32.0 °F - 23.0 °F 69% 30.22 in 10.0 mi Calm Calm - N/A   Clear
10:15 PM 32.0 °F - 24.8 °F 75% 30.23 in 10.0 mi Calm Calm - N/A   Clear
10:35 PM 32.0 °F - 24.8 °F 75% 30.23 in 10.0 mi Calm Calm - N/A   Clear
10:55 PM 32.0 °F - 26.6 °F 80% 30.22 in 10.0 mi Calm Calm - N/A   Scattered Clouds
11:15 PM 32.0 °F - 24.8 °F 75% 30.23 in 10.0 mi Calm Calm - N/A   Mostly Cloudy
11:35 PM 32.0 °F 28.7 °F 24.8 °F 75% 30.22 in 10.0 mi SSW 3.5 mph - N/A   Overcast
11:55 PM 32.0 °F - 24.8 °F 75% 30.21 in 10.0 mi Calm Calm - N/A   Overcast